This demonstration page uses our WeatherBlox Daily Observations layout. Learn more.

Left ArrowRight Arrow

Hourly Observations for July 4, 2020

Temp ( °F °C ) Dew Point ( °F °C ) Humidity (%) Winds ( mph kmh ) Pressure ( in mb ) Visibility ( mi km ) Precip ( " mm )
12:51 am 00:51 Clear 82 27.8 50 10 33 33 WNW 10 17 29.81 1010 10 16.0934 0 0
1:51 am 01:51 Clear 82 27.8 50 10 33 33 WNW 10 17 29.8 1009 10 16.0934 0 0
2:51 am 02:51 Clear 80 26.7 50 10 35 35 N 5 7 29.8 1009 10 16.0934 0 0
3:51 am 03:51 Clear 80 26.7 50 10 35 35 NW 6 9 29.8 1009 10 16.0934 0 0
4:51 am 04:51 Clear 76 24.4 49 9.4 39 39 NW 5 7 29.82 1010 10 16.0934 0 0
5:51 am 05:51 Sunny 76 24.4 50 10 40 40 SSE 5 7 29.84 1011 10 16.0934 0 0
6:51 am 06:51 Sunny 79 26.1 51 10.6 38 38 S 3 6 29.86 1011 10 16.0934 0 0
7:51 am 07:51 Sunny 84 28.9 52 11.1 33 33 SE 6 9 29.87 1011 10 16.0934 0 0
8:51 am 08:51 Sunny 91 32.8 52 11.1 26 26 W 6 9 29.86 1011 10 16.0934 0 0
9:51 am 09:51 Sunny 95 35 53 11.7 24 24 W 6 9 29.85 1011 10 16.0934 0 0
10:51 am 10:51 Sunny 99 37.2 51 10.6 20 20 WNW 14 22 29.84 1011 10 16.0934 0 0
11:51 am 11:51 Sunny 102 38.9 47 8.3 15 15 WNW 18 30 29.81 1010 10 16.0934 0 0
12:51 pm 12:51 Sunny 103 39.4 46 7.8 15 15 NW 21 33 29.78 1009 10 16.0934 0 0
1:51 pm 13:51 Sunny 104 40 47 8.3 15 15 WNW 12 19 29.75 1008 10 16.0934 0 0
2:51 pm 14:51 Sunny 105 40.6 45 7.2 13 13 NW 20 31 29.72 1006 10 16.0934 0 0
3:51 pm 15:51 Sunny 105 40.6 43 6.1 12 12 NNW 16 26 29.68 1005 10 16.0934 0 0
4:51 pm 16:51 Sunny 105 40.6 44 6.7 13 13 NW 21 33 29.67 1005 10 16.0934 0 0
5:51 pm 17:51 Sunny 103 39.4 45 7.2 14 14 NW 12 19 29.67 1005 10 16.0934 0 0
6:51 pm 18:51 Sunny 101 38.3 46 7.8 15 15 WNW 16 26 29.68 1005 10 16.0934 0 0
7:51 pm 19:51 Clear 96 35.6 46 7.8 18 18 WNW 16 26 29.7 1006 10 16.0934 0 0
8:51 pm 20:51 Clear 93 33.9 45 7.2 19 19 NW 14 22 29.72 1007 10 16.0934 0 0
9:51 pm 21:51 Clear 91 32.8 45 7.2 20 20 NW 12 19 29.74 1007 10 16.0934 0 0
10:51 pm 22:51 Clear 90 32.2 45 7.2 21 21 WNW 15 24 29.74 1007 10 16.0934 0 0
11:51 pm 23:51 Clear 85 29.4 45 7.2 25 25 W 7 11 29.75 1007 10 16.0934 0 0

Powered by AerisWeather